Location: Deneb Observatory
(47.2267°N, 100.4953°W)
Time: 07:07:14
(UTC-06:00)

Iridium 66 - Visible Passes

Search period start: 27 February 2015 00:00
Search period end: 09 March 2015 01:00
Orbit: 776 x 779 km, 86.4° (Epoch: 26 February)

Date Brightness Start Highest point End Pass type
(mag) Time Alt. Az. Time Alt. Az. Time Alt. Az.
27 Feb 8.3 03:33:15 20° E 03:33:22 20° E 03:37:11 10° NNE visible
27 Feb 6.0 05:13:45 57° W 05:13:45 57° W 05:18:53 10° N visible
28 Feb 8.9 03:00:09 12° ENE 03:00:10 12° ENE 03:02:02 10° NE visible
28 Feb 6.1 04:40:39 72° NNE 04:40:39 72° NNE 04:45:24 10° N visible
28 Feb 7.6 06:21:09 14° WNW 06:21:42 14° WNW 06:24:25 10° NW visible
01 Mar 7.0 04:07:30 44° ENE 04:07:30 44° ENE 04:11:42 10° NNE visible
01 Mar 7.1 05:47:59 24° WNW 05:47:59 24° WNW 05:51:54 10° NNW visible
02 Mar 7.9 03:34:18 26° ENE 03:34:18 26° ENE 03:37:44 10° NNE visible
02 Mar 6.6 05:14:48 38° NW 05:14:48 38° NW 05:18:50 10° N visible
03 Mar 8.6 03:01:05 16° ENE 03:01:05 16° ENE 03:03:19 10° NE visible
03 Mar 6.5 04:41:34 49° NNW 04:41:34 49° NNW 04:45:29 10° N visible
03 Mar 7.9 06:22:03 10° WNW 06:22:08 10° WNW 06:22:39 10° WNW visible
04 Mar 7.0 04:08:19 43° NNE 04:08:19 43° NNE 04:11:55 10° N visible
04 Mar 7.6 05:48:48 17° WNW 05:48:48 17° WNW 05:51:29 10° NNW visible
05 Mar 7.7 03:35:02 30° NE 03:35:02 30° NE 03:38:07 10° NNE visible
05 Mar 7.2 05:15:31 26° NW 05:15:31 26° NW 05:18:41 10° NNW visible
06 Mar 8.4 03:01:44 19° NE 03:01:44 19° NE 03:04:01 10° NNE visible
06 Mar 6.9 04:42:12 35° NNW 04:42:12 35° NNW 04:45:29 10° N visible
07 Mar 8.9 02:28:24 12° NE 02:28:24 12° NE 02:29:12 10° NE visible
07 Mar 7.1 04:08:53 38° N 04:08:53 38° N 04:12:03 10° N visible
07 Mar 7.9 05:49:21 12° NW 05:49:21 12° NW 05:50:41 10° NW visible
08 Mar 7.6 04:35:33 31° NNE 04:35:33 31° NNE 04:38:23 10° NNE visible
08 Mar 7.6 06:16:01 19° NW 06:16:01 19° NW 06:18:24 10° NNW visible
